This demonstration page uses our WeatherBlox Daily Observations layout. Learn more.

Left ArrowRight Arrow

Hourly Observations for September 23, 2021

Temp ( °F °C ) Dew Point ( °F °C ) Humidity (%) Winds ( mph kmh ) Pressure ( in mb ) Visibility ( mi km ) Precip ( " mm )
12:15 am 00:15 Clear 57 13.8 41 5 56 56 SSE 9 15 30.08 1019 10 16 N/A
12:35 am 00:35 Clear 57 13.7 41 5 56 56 SSE 8 13 30.07 1018 10 16 N/A
12:55 am 00:55 Clear 56 13.5 41 5.2 57 57 SSE 8 13 30.07 1018 10 16 N/A
1:15 am 01:15 Clear 56 13.3 42 5.3 59 59 S 7 11 30.07 1018 10 16 N/A
1:35 am 01:35 Clear 55 13 42 5.5 61 61 S 7 11 30.07 1018 10 16 N/A
1:55 am 01:55 Clear 54 12.4 42 5.5 63 63 S 7 11 30.07 1018 10 16 N/A
2:15 am 02:15 Clear 54 12 42 5.8 66 66 S 7 11 30.08 1018 10 16 N/A
2:35 am 02:35 Clear 53 11.5 43 6 69 69 S 7 11 30.07 1018 10 16 N/A
2:55 am 02:55 Clear 52 11.3 43 6 70 70 S 6 9 30.07 1018 10 16 N/A
3:15 am 03:15 Clear 51 10.8 43 6 72 72 S 6 9 30.07 1018 10 16 N/A
3:35 am 03:35 Clear 51 10.5 43 6 74 74 S 7 11 30.07 1018 10 16 N/A
3:55 am 03:55 Clear 51 10.6 43 5.9 73 73 S 6 9 30.07 1018 10 16 N/A
4:15 am 04:15 Clear 51 10.7 42 5.8 72 72 S 7 11 30.06 1018 10 16 N/A
4:35 am 04:35 Clear 51 10.3 43 5.9 74 74 S 7 11 30.06 1018 10 16 N/A
4:55 am 04:55 Clear 50 10 42 5.7 75 75 S 5 7 30.06 1018 10 16 N/A
5:15 am 05:15 Clear 50 10 42 5.6 74 74 S 6 9 30.06 1018 10 16 N/A
5:35 am 05:35 Clear 49 9.5 42 5.8 78 78 S 6 9 30.07 1018 10 16 N/A
5:55 am 05:55 Clear 49 9.5 42 5.6 77 77 S 6 9 30.06 1018 10 16 N/A
6:15 am 06:15 Clear 49 9.2 42 5.5 78 78 S 5 7 30.06 1018 10 16 N/A
6:35 am 06:35 Clear 49 9.3 42 5.5 77 77 S 6 9 30.06 1018 10 16 N/A
6:55 am 06:55 Clear 47 8.3 42 5.3 82 82 S 5 7 30.07 1018 10 16 N/A
7:15 am 07:15 Clear 47 8.3 42 5.3 82 82 S 6 9 30.06 1018 10 16 N/A
7:35 am 07:35 Sunny 48 8.8 42 5.3 79 79 S 7 11 30.05 1018 10 16 N/A
7:55 am 07:55 Sunny 49 9.5 42 5.4 76 76 S 6 9 30.05 1018 10 16 N/A
8:15 am 08:15 Sunny 50 10 42 5.5 74 74 SSW 7 11 30.04 1017 10 16 N/A
8:35 am 08:35 Sunny 52 11.2 43 6 71 71 S 7 11 30.01 1016 10 16 N/A
8:55 am 08:55 Sunny 56 13.2 43 6 62 62 S 8 13 29.99 1016 10 16 N/A
9:15 am 09:15 Sunny 58 14.3 43 5.9 57 57 S 9 15 29.98 1015 10 16 N/A
9:35 am 09:35 Sunny 60 15.8 42 5.5 51 51 S 12 19 29.97 1015 10 16 N/A
9:55 am 09:55 Sunny 63 17.2 42 5.5 46 46 SSW 14 22 29.96 1015 10 16 N/A
10:15 am 10:15 Sunny 65 18.3 41 5.1 42 42 SSW 13 20 29.94 1014 10 16 N/A
10:35 am 10:35 Sunny 65 18.6 41 5.1 41 41 SSW 9 15 29.94 1014 10 16 N/A
10:55 am 10:55 Sunny 67 19.5 41 5 39 39 SSW 10 17 29.93 1014 10 16 N/A
11:15 am 11:15 Sunny 68 20.2 41 5.2 38 38 SW 8 13 29.93 1013 10 16 N/A
11:35 am 11:35 Sunny 70 21 43 5.9 38 38 SSW 7 11 29.92 1013 10 16 N/A
11:55 am 11:55 Sunny 71 21.7 43 6.3 37 37 S 8 13 29.91 1013 10 16 N/A
12:15 pm 12:15 Sunny 72 22.3 44 6.4 36 36 S 8 13 29.90 1012 10 16 N/A
12:35 pm 12:35 Sunny 74 23.4 44 6.6 34 34 SSW 9 15 29.88 1012 10 16 N/A
12:55 pm 12:55 Sunny 75 24 44 6.9 33 33 SSW 10 17 29.87 1012 7 11 N/A
1:15 pm 13:15 Sunny 76 24.6 44 6.8 32 32 SSW 13 20 29.86 1011 10 16 N/A
1:35 pm 13:35 Sunny 77 25 44 6.8 31 31 S 10 17 29.85 1011 10 16 N/A
1:55 pm 13:55 Sunny 78 25.5 45 7.2 31 31 S 12 19 29.83 1010 10 16 N/A
2:15 pm 14:15 Sunny 79 26.2 45 7 29 29 S 10 17 29.81 1009 10 16 N/A
2:35 pm 14:35 Sunny 80 26.6 44 6.7 28 28 S 13 20 29.79 1009 10 16 N/A
2:55 pm 14:55 Sunny 81 27.4 44 6.8 27 27 S 12 19 29.78 1008 10 16 N/A
3:15 pm 15:15 Sunny 82 27.6 44 6.8 27 27 SSE 14 22 29.77 1008 10 16 N/A
3:35 pm 15:35 Sunny 82 28 44 6.6 26 26 SSE 14 22 29.76 1008 10 16 N/A
3:55 pm 15:55 Sunny 83 28.2 44 6.7 26 26 SSE 13 20 29.75 1008 10 16 N/A
4:15 pm 16:15 Sunny 83 28.4 44 6.5 25 25 SSW 14 22 29.76 1008 10 16 N/A
4:35 pm 16:35 Sunny 83 28.3 44 6.6 25 25 S 14 22 29.75 1007 10 16 N/A
4:55 pm 16:55 Sunny 83 28.5 44 6.6 25 25 S 12 19 29.75 1007 10 16 N/A
5:15 pm 17:15 Sunny 83 28.5 44 6.6 25 25 S 12 19 29.75 1007 10 16 N/A
5:35 pm 17:35 Sunny 83 28.5 44 6.8 25 25 S 13 20 29.75 1007 10 16 N/A
5:55 pm 17:55 Sunny 83 28.5 44 6.7 25 25 S 12 19 29.75 1007 10 16 N/A
6:15 pm 18:15 Sunny 82 28 45 7.1 27 27 S 8 13 29.75 1008 10 16 N/A
6:35 pm 18:35 Sunny 81 27.1 46 7.7 29 29 S 6 9 29.76 1008 10 16 N/A
6:55 pm 18:55 Sunny 79 25.9 47 8.4 33 33 S 5 7 29.77 1008 10 16 N/A
7:15 pm 19:15 Sunny 74 23.5 48 9 40 40 SSE 6 9 29.79 1009 10 16 N/A
7:35 pm 19:35 Clear 70 21.3 49 9.5 47 47 SE 6 9 29.81 1009 10 16 N/A
7:55 pm 19:55 Clear 67 19.4 49 9.6 53 53 SE 7 11 29.81 1010 10 16 N/A
8:15 pm 20:15 Clear 65 18.3 50 10 59 59 SE 7 11 29.83 1010 10 16 N/A
8:35 pm 20:35 Clear 64 17.7 50 10 61 61 SE 6 9 29.84 1010 10 16 N/A
8:55 pm 20:55 Clear 65 18.6 49 9.4 55 55 SSE 7 11 29.83 1010 10 16 N/A
9:15 pm 21:15 Clear 65 18.5 48 8.9 54 54 SSE 7 11 29.83 1010 10 16 N/A
9:35 pm 21:35 Clear 65 18.5 47 8.5 52 52 SSE 7 11 29.84 1010 10 16 N/A
9:55 pm 21:55 Clear 65 18.5 47 8.2 51 51 SSE 8 13 29.84 1010 10 16 N/A
10:15 pm 22:15 Clear 66 19.1 46 7.8 48 48 SSE 7 11 29.83 1010 10 16 N/A
10:35 pm 22:35 Clear 64 17.9 46 8 53 53 SSE 7 11 29.83 1010 10 16 N/A
10:55 pm 22:55 Clear 63 17.2 46 8 55 55 S 3 6 29.84 1011 10 16 N/A
11:15 pm 23:15 Clear 62 16.8 46 8 56 56 S 3 6 29.84 1011 10 16 N/A
11:35 pm 23:35 Clear 62 16.5 46 8 57 57 S 5 7 29.85 1011 10 16 N/A
11:55 pm 23:55 Clear 61 15.9 46 8 60 60 S 6 9 29.85 1011 10 16 N/A

Powered by AerisWeather